Theta_e
331 328 324 327 332 332 330 329 328 330 331 330 331 332 334 337 340 350 336 336 339 338 335 335 336 337 335 334 332 332 333 334 333 332 332 333 332 330 332 330 328 330 331 329 330 328 329 327 322
332 328 326 331 332 334 330 327 331 332 331 331 332 332 333 340 337 337 337 336 338 339 338 335 336 336 334 332 331 332 332 333 332 331 331 333 331 330 332 331 329 330 329 329 329 328 327 324 318
333 327 329 334 331 332 331 328 328 332 331 332 333 332 334 338 336 337 338 336 337 337 339 336 335 335 333 332 331 331 331 331 330 331 331 332 331 330 331 330 329 328 328 328 328 327 326 321 316
331 329 329 335 331 328 328 327 329 330 330 330 330 335 335 336 336 338 337 336 335 337 338 335 334 334 334 333 331 330 329 331 331 331 330 330 330 330 330 330 329 328 327 328 327 327 323 317 316
331 330 336 337 333 326 327 327 329 330 328 328 328 330 338 336 338 337 337 335 334 337 336 334 334 334 334 334 331 329 328 329 330 330 330 329 330 329 328 328 328 327 327 327 327 321 318 317 314
334 333 338 340 332 326 327 328 329 328 326 326 327 327 339 336 337 336 336 334 333 336 335 334 334 334 334 334 332 329 328 327 327 328 328 328 329 329 328 326 328 328 327 327 324 317 315 315 315
334 338 340 337 334 330 328 329 330 328 327 327 326 329 336 336 337 335 335 333 332 332 334 334 334 333 332 334 332 330 328 326 326 325 326 328 327 327 327 326 326 326 328 326 321 319 315 313 315
331 333 338 337 336 334 328 329 329 328 329 328 328 328 336 335 337 333 334 332 331 331 332 334 335 334 332 333 333 332 330 327 325 324 326 325 326 326 326 326 326 325 327 326 321 320 318 315 313
331 335 339 339 336 332 328 329 327 326 329 328 330 331 335 337 336 335 333 331 329 330 330 332 334 333 333 333 332 333 331 328 325 324 323 322 322 323 323 326 326 324 322 323 322 320 318 318 317
334 337 337 334 329 329 328 328 327 328 327 329 331 332 336 336 335 333 332 330 328 329 330 330 332 333 333 334 333 333 332 330 327 325 322 324 326 325 325 324 322 322 320 319 320 319 318 320 321
332 335 333 332 328 327 328 327 327 327 328 327 329 332 335 335 334 333 332 329 328 329 329 328 331 332 332 332 332 332 332 331 329 328 326 326 326 325 324 322 317 318 319 319 318 316 316 321 322
328 329 331 332 326 326 329 326 326 326 327 325 327 331 333 334 333 333 331 328 327 328 329 327 328 331 333 331 332 332 332 330 329 328 329 325 325 325 324 322 315 316 316 320 319 320 322 322 321
325 327 326 330 327 326 326 327 327 327 325 324 325 329 332 333 334 334 333 330 326 326 327 328 326 328 331 332 331 334 331 330 329 329 329 327 325 324 321 323 322 322 321 322 322 323 323 321 322
323 326 325 326 329 329 329 329 328 328 325 326 323 323 327 330 333 334 334 333 329 326 326 327 325 326 329 330 332 330 332 331 330 329 328 327 324 323 322 322 322 322 321 321 322 322 322 321 321
326 327 325 323 327 330 331 332 331 328 328 328 327 321 322 324 328 331 333 333 333 330 327 327 327 325 326 328 329 330 330 330 330 328 328 327 324 323 322 321 321 320 320 320 321 321 321 321 321
326 326 328 321 324 326 328 330 327 326 328 328 327 326 326 326 327 328 328 332 333 333 331 328 328 326 325 325 327 328 328 329 329 328 327 326 324 323 322 321 320 319 319 319 321 321 321 321 321
327 322 321 319 318 322 329 330 323 320 321 326 328 327 326 325 327 330 329 329 332 333 333 331 328 328 326 325 325 327 327 327 327 327 327 326 324 322 322 322 321 320 319 319 319 321 321 320 321
321 324 320 319 319 324 323 325 323 322 320 324 325 326 323 324 325 327 328 329 329 331 332 333 331 328 328 327 325 326 327 327 327 326 325 325 324 323 322 323 322 322 320 320 320 321 321 321 321
318 319 321 320 318 323 322 323 323 321 318 317 320 322 322 321 323 326 326 325 328 330 330 332 332 331 329 328 327 326 326 326 326 327 325 324 324 323 322 322 323 323 322 321 321 322 322 322 322
322 322 322 320 319 323 323 324 322 321 318 318 318 319 318 319 319 322 324 326 326 328 330 331 332 332 331 329 328 327 326 326 326 327 327 325 324 323 323 322 323 324 324 323 323 323 323 322 322
323 323 322 322 321 322 325 323 322 321 320 320 319 319 318 318 318 317 319 321 325 325 327 330 331 332 332 331 330 329 328 327 327 327 327 327 326 324 323 322 322 324 324 324 323 324 324 323 324
325 321 321 322 323 324 321 325 321 319 319 319 319 318 318 318 318 318 319 321 322 323 324 327 330 331 332 332 331 331 329 328 327 327 326 326 327 326 324 323 322 323 324 324 323 323 324 323 323
323 319 320 321 323 322 321 322 320 318 318 318 318 318 318 317 318 319 319 321 321 321 323 324 328 329 329 331 332 331 331 330 329 327 327 326 326 327 326 324 323 323 323 324 323 323 324 324 323
319 320 320 320 321 323 319 320 318 317 316 315 317 316 316 317 317 318 317 317 318 319 320 321 322 323 325 328 330 332 332 331 331 330 329 327 326 326 326 326 324 323 323 323 324 323 323 324 324
321 321 323 322 323 321 317 320 317 315 313 313 313 314 315 316 315 313 310 314 316 317 314 314 314 316 319 320 320 324 331 332 331 331 330 329 327 326 326 326 325 324 323 323 323 324 323 324 324
322 320 318 317 319 316 314 315 313 315 315 314 315 315 316 314 312 310 311 312 310 312 312 313 313 312 312 313 314 316 319 328 331 332 331 331 330 329 327 326 326 325 324 323 324 324 324 324 324
322 322 316 318 310 315 315 314 313 314 313 312 314 313 313 311 311 311 311 311 311 311 311 311 310 311 311 310 310 311 312 316 323 330 331 331 331 330 330 329 327 326 325 324 324 325 325 324 325
318 317 320 320 318 316 314 314 313 314 313 312 312 311 311 310 312 311 311 311 310 311 310 310 310 311 311 311 311 311 310 312 313 318 327 330 330 330 331 330 330 329 327 325 325 325 326 326 326
319 320 318 317 317 316 314 311 309 310 309 310 310 311 311 311 311 309 306 308 309 308 308 309 310 311 311 311 311 311 310 310 311 313 316 322 327 329 329 330 330 330 329 328 327 326 327 327 326
317 318 317 320 318 316 316 314 311 311 311 310 310 311 310 311 308 305 305 306 307 308 309 309 309 309 310 310 310 310 310 310 310 312 314 316 321 325 328 329 329 330 329 328 328 328 327 327 326
Wind_Speed
26 21 18 7 2 5 6 2 7 5 7 4 7 4 9 10 6 5 12 17 19 20 16 16 15 14 12 11 10 10 12 13 14 14 14 14 16 16 15 13 16 17 16 16 16 16 15 16 17
27 21 7 4 2 6 5 7 8 9 8 6 4 3 4 5 7 9 11 14 17 15 16 14 14 13 12 11 11 12 12 13 14 14 15 15 15 15 15 13 16 16 15 14 14 14 15 16 17
26 14 2 3 4 5 5 7 9 8 4 2 4 3 5 4 11 13 17 16 15 14 17 13 14 13 12 11 11 12 12 13 13 13 14 14 13 14 13 11 12 14 13 12 13 13 14 15 18
11 4 4 2 9 5 8 8 10 8 4 3 3 8 6 7 8 13 18 17 15 15 13 12 13 12 12 12 10 10 11 11 12 12 12 13 13 12 12 12 12 12 12 11 12 12 12 13 16
11 4 3 0 8 5 7 8 8 4 6 7 2 5 6 5 15 20 19 17 17 14 10 13 13 12 13 12 10 10 10 11 11 11 11 11 11 11 10 11 10 10 10 9 10 11 11 12 13
4 2 4 2 8 6 5 5 6 5 6 5 3 5 4 13 18 18 19 16 16 14 13 13 13 13 13 12 10 10 9 9 9 9 12 10 10 10 9 9 10 9 9 8 9 9 9 10 11
4 4 7 6 7 5 6 5 4 5 5 6 2 2 5 12 18 19 19 17 15 15 13 12 14 14 13 12 11 10 9 8 8 8 10 11 10 8 8 9 8 10 9 7 8 8 8 8 9
3 3 6 3 4 4 5 5 6 2 5 3 5 2 6 13 19 18 15 16 15 15 15 14 13 14 14 13 12 11 9 8 7 8 9 10 10 9 8 8 8 8 11 7 7 6 6 7 7
3 3 5 5 1 4 6 5 2 3 4 0 3 8 14 26 22 19 16 15 16 16 16 16 17 13 12 13 14 13 11 10 8 8 8 7 6 9 9 9 9 9 9 10 8 6 5 5 5
3 3 7 5 9 8 8 6 8 3 5 4 6 6 21 21 21 19 19 20 20 19 19 19 18 18 18 16 15 17 14 12 10 10 10 9 6 7 8 9 11 10 9 9 8 7 6 5 2
4 6 10 8 8 8 4 2 1 4 5 7 11 11 14 19 18 15 16 20 22 21 21 21 21 20 21 19 17 17 16 14 12 9 10 12 12 13 13 10 12 12 11 10 9 8 7 4 4
9 9 7 3 5 6 5 7 2 5 2 7 5 17 16 12 16 19 20 20 23 24 23 23 24 24 22 22 20 21 19 17 17 16 15 15 16 15 16 12 13 12 12 9 8 6 5 9 11
9 7 11 1 3 5 6 5 6 7 8 5 8 8 11 10 15 18 19 19 20 24 25 26 26 27 26 25 27 24 24 23 21 19 20 19 20 18 17 16 13 14 13 12 14 11 12 11 9
4 7 14 7 4 3 3 7 6 5 10 9 9 5 7 11 18 19 19 20 23 23 24 24 25 26 27 30 25 29 25 25 25 23 23 22 21 20 20 20 19 19 17 16 15 14 14 11 11
4 8 9 10 8 5 3 7 11 8 9 7 6 9 9 10 19 21 21 21 21 23 23 26 27 27 27 27 29 24 27 26 26 26 26 25 24 22 22 23 23 21 19 18 17 16 15 13 12
1 5 4 5 7 7 6 11 11 9 13 13 11 9 8 11 18 15 17 23 24 24 25 25 28 29 29 28 27 27 25 27 26 28 27 28 27 27 24 24 24 22 21 21 20 19 18 18 16
6 4 10 9 11 8 9 7 9 12 12 9 7 6 8 9 11 14 16 17 22 25 25 27 29 30 32 31 28 27 27 27 28 27 29 30 30 30 28 28 26 24 23 24 23 21 20 18 17
6 8 8 8 6 9 10 11 11 11 9 7 5 6 8 8 8 13 15 19 22 22 26 29 31 33 32 31 30 28 28 29 30 31 33 32 33 33 32 30 29 26 26 26 24 23 22 21 19
9 8 3 8 8 8 9 10 14 15 10 10 9 9 9 9 13 14 21 20 17 25 25 28 31 33 33 33 32 31 34 33 34 34 36 34 34 34 35 35 32 30 31 32 29 27 25 24 21
11 10 7 9 4 2 7 13 13 15 14 9 10 9 9 8 8 16 21 22 25 24 28 27 29 31 35 33 32 31 30 31 34 34 33 36 36 37 38 39 37 36 35 34 32 30 28 27 25
13 11 8 6 5 5 5 19 19 14 21 19 13 12 8 9 9 9 12 17 23 27 28 29 29 29 32 33 28 28 28 28 31 34 37 40 40 41 41 42 41 39 38 39 38 35 34 26 28
14 6 5 2 3 4 4 7 9 8 9 18 18 10 9 9 10 11 12 18 23 16 28 27 28 30 30 31 30 30 30 30 36 33 35 36 41 45 46 45 44 43 42 40 41 40 38 30 26
7 8 9 6 5 5 7 8 4 7 10 11 6 10 10 10 8 7 7 4 5 8 3 7 20 26 28 31 35 34 31 31 31 28 31 37 39 45 47 47 45 44 44 43 40 38 41 39 32
8 7 7 4 2 8 7 9 5 9 11 6 4 8 8 5 3 4 13 14 11 9 7 7 9 13 17 20 29 35 33 32 30 30 31 34 37 39 45 46 45 46 44 43 46 45 42 42 38
11 10 2 2 4 7 11 11 15 11 10 6 6 4 2 5 8 8 8 8 6 4 5 6 6 8 12 17 23 23 33 35 34 33 31 30 30 34 38 47 46 46 48 47 44 44 44 45 41
17 13 5 8 5 3 8 8 6 5 5 5 2 5 5 7 7 8 7 7 5 3 8 10 10 11 12 14 18 21 26 29 34 36 35 34 34 34 36 41 46 47 47 46 44 42 44 43 44
11 17 9 2 1 1 5 6 9 6 6 7 6 5 6 9 6 6 5 4 4 5 7 9 12 15 17 18 20 20 22 26 31 35 36 37 37 38 38 41 43 45 45 45 44 42 43 44 44
10 7 6 4 5 5 5 6 6 2 5 4 7 9 9 8 6 2 3 5 6 5 8 11 11 15 18 21 21 21 23 25 28 33 35 37 38 39 40 39 42 43 45 45 44 43 43 42 43
7 13 8 5 7 5 2 5 10 13 3 5 2 9 9 7 5 1 4 7 8 9 12 14 16 17 18 21 23 24 25 27 29 31 35 36 38 39 40 40 39 39 41 42 44 45 43 43 43
18 9 19 8 8 5 3 6 7 4 4 2 9 8 7 5 2 3 4 5 8 10 11 14 15 18 20 22 25 26 26 27 28 30 32 35 38 39 40 40 41 40 38 42 43 44 42 43 41
Wind_Direction
336 333 317 289 261 93 114 48 118 119 105 71 52 23 69 38 15 99 136 116 130 135 142 143 143 135 132 123 115 107 104 100 101 99 98 106 103 102 100 97 97 97 95 91 91 89 88 86 93
331 329 305 268 256 112 87 143 104 72 85 78 129 276 65 83 73 122 109 133 134 129 136 149 146 140 135 122 117 113 112 107 105 105 104 103 102 105 102 98 99 97 95 95 96 95 92 91 97
324 301 279 310 17 41 111 93 101 91 109 153 128 49 25 92 114 135 138 142 135 127 147 153 147 144 138 128 120 117 117 114 111 110 113 114 108 106 107 107 97 98 99 98 98 96 97 97 102
319 270 256 263 100 18 104 103 114 131 123 326 355 94 84 37 138 128 141 143 139 147 148 155 152 150 147 138 128 122 120 120 114 114 118 122 118 119 117 112 102 104 102 104 104 102 101 104 107
314 257 281 86 73 92 64 105 138 145 138 147 210 140 97 99 112 130 144 147 144 144 162 165 158 156 158 151 139 135 132 134 124 124 120 126 122 124 125 124 119 116 109 110 110 108 106 105 109
306 246 289 316 112 96 98 123 152 144 123 100 180 114 87 139 136 148 149 151 151 144 148 164 162 161 163 163 153 147 145 141 142 133 136 130 133 125 127 131 133 129 124 124 116 111 111 110 112
335 322 288 348 109 141 123 153 178 137 157 155 46 93 118 159 148 158 149 153 155 158 156 172 172 168 170 172 166 161 157 152 146 142 140 139 138 139 136 138 133 151 141 146 130 118 117 117 115
303 299 295 268 290 110 120 168 356 141 93 86 352 144 163 157 151 156 155 157 159 165 168 171 178 178 175 179 180 175 171 165 161 162 158 161 147 149 156 155 147 159 158 161 148 137 129 125 123
286 277 271 320 104 95 137 149 269 15 108 98 81 47 104 143 153 155 164 165 173 171 178 179 180 180 181 193 189 188 184 181 177 177 181 171 163 149 161 164 178 180 166 170 170 168 157 144 131
239 250 271 39 19 13 147 215 153 183 193 145 108 82 124 146 164 169 172 178 181 180 184 184 184 183 186 194 198 193 195 193 190 192 190 157 180 174 186 202 199 192 185 181 182 186 177 161 116
222 239 274 35 31 350 351 216 55 205 220 189 179 155 150 161 175 175 199 191 190 186 189 189 187 188 190 197 199 197 204 201 201 208 201 165 200 201 206 219 200 200 196 200 201 198 187 177 222
269 272 282 70 29 341 350 342 22 274 296 43 56 157 160 176 188 186 204 203 192 195 196 195 193 190 192 192 198 200 207 205 206 209 218 189 199 217 210 218 208 207 203 194 223 223 217 227 212
254 270 291 81 102 299 332 285 272 298 293 99 64 107 163 186 199 207 208 207 202 202 202 201 196 195 194 197 203 199 206 210 209 210 216 212 207 215 198 215 214 213 214 204 220 216 230 230 230
259 235 260 232 200 206 275 282 269 221 235 273 142 192 207 190 200 208 215 207 204 205 207 205 205 205 201 200 206 204 204 209 210 206 215 221 213 212 209 208 213 218 213 216 217 220 228 225 231
5 303 289 260 193 240 224 260 246 250 273 268 239 193 218 220 210 207 208 213 213 209 208 206 209 209 210 211 208 212 208 210 214 206 213 221 210 216 221 211 214 217 216 219 219 219 225 225 225
293 274 271 231 228 227 207 256 261 234 225 234 236 217 229 221 229 223 216 208 212 212 209 209 209 210 213 216 216 215 214 216 214 216 214 216 217 208 220 219 220 219 217 220 219 222 224 224 223
193 237 222 265 232 200 186 261 259 241 257 256 230 260 236 240 218 216 224 222 214 213 212 209 210 210 213 214 218 217 217 219 220 218 215 218 221 215 212 218 220 221 219 223 222 222 223 225 226
189 201 249 262 216 199 234 245 260 277 294 277 268 244 259 265 233 210 233 227 221 221 215 213 211 213 213 216 218 220 220 220 220 218 218 218 221 220 214 218 219 218 219 221 221 221 222 225 228
258 232 277 234 261 188 232 254 262 274 264 247 247 228 233 245 263 256 225 234 232 219 219 215 211 210 209 210 212 216 218 219 221 222 221 219 220 223 219 218 218 216 217 221 219 220 220 222 222
234 251 252 288 271 69 305 281 282 281 269 236 243 245 239 245 247 244 248 225 221 225 221 220 219 214 212 211 214 216 217 220 222 222 224 222 220 222 223 223 218 218 218 221 220 218 219 223 220
223 233 238 253 342 299 293 279 254 237 249 259 244 238 240 246 263 266 265 260 231 220 223 223 222 222 220 217 217 221 225 229 228 225 225 222 221 222 224 226 223 219 220 220 221 217 216 214 217
223 202 264 295 328 247 90 287 294 317 262 240 248 221 231 238 249 249 252 268 279 252 232 228 225 223 225 224 218 219 219 222 227 226 226 223 223 225 226 226 226 222 219 220 222 220 218 214 212
215 188 217 232 246 310 252 283 254 205 263 273 226 188 200 222 227 248 256 278 6 359 11 247 235 231 230 227 225 222 226 231 237 237 236 229 225 226 226 227 224 222 220 222 219 217 216 216 215
124 94 55 61 42 256 187 218 221 223 231 231 204 185 200 226 185 66 52 35 18 5 356 340 298 267 255 252 240 232 229 232 237 239 239 233 227 226 225 227 225 225 222 222 222 221 218 216 217
144 141 141 203 201 239 170 202 241 282 314 293 294 326 349 95 77 69 49 37 23 46 18 342 318 292 277 270 264 263 242 236 239 243 244 241 232 226 226 227 225 223 225 225 222 218 218 217 216
180 175 169 183 201 242 189 236 229 136 53 49 90 84 75 42 76 88 84 63 40 358 345 340 324 306 307 297 293 283 267 260 245 244 245 244 242 237 233 231 228 226 226 225 223 221 219 219 218
186 216 198 70 12 32 209 263 313 266 294 280 207 244 169 97 94 88 85 58 319 309 327 320 312 300 302 304 304 299 291 277 266 253 248 248 248 246 245 238 232 228 227 227 224 222 223 220 219
186 148 180 190 201 233 242 239 238 146 200 190 168 119 110 114 123 142 236 278 349 335 327 318 307 313 313 312 304 299 302 295 288 276 261 250 250 250 249 247 237 229 226 226 224 225 225 224 224
192 198 206 162 226 201 219 236 191 222 138 161 153 126 127 149 173 230 12 12 9 1 350 343 334 329 326 325 317 305 301 301 298 290 277 266 259 253 251 252 249 235 226 227 224 224 226 226 228
213 210 201 201 203 239 279 251 297 297 326 192 132 126 138 175 146 43 12 10 9 350 345 334 338 333 332 330 327 318 307 301 300 300 291 279 268 261 255 251 252 249 235 225 227 229 228 227 227